This demonstration page uses our WeatherBlox Daily Observations layout. Learn more.

Hourly Observations for March 19, 2016

Temp ( °F °C ) Dew Point ( °F °C ) Humidity (%) Winds ( mph kmh ) Pressure ( in mb ) Visibility ( mi km ) Precip ( " mm )
12:15 am 00:15 Clear 52 11 28 -2 41 41 NNW 8 13 29.97 1015 10 16.09344 0 0
12:35 am 00:35 Clear 54 12 30 -1 41 41 N 8 13 30 1016 10 16.09344 0 0
12:55 am 00:55 Clear 52 11 32 0 47 47 N 10 17 30 1016 10 16.09344 0 0
1:15 am 01:15 Clear 52 11 32 0 47 47 N 12 19 30 1016 10 16.09344 0 0
1:35 am 01:35 Clear 50 10 32 0 50 50 N 10 17 30.03 1017 10 16.09344 0 0
1:55 am 01:55 Clear 50 10 32 0 50 50 N 8 13 30.03 1017 10 16.09344 0 0
2:35 am 02:35 Clear 50 10 32 0 50 50 NNW 9 15 30.09 1019 10 16.09344 0 0
2:55 am 02:55 Clear 48 9 32 0 54 54 N 7 11 30.09 1019 10 16.09344 0 0
3:15 am 03:15 Clear 48 9 32 0 54 54 NNW 7 11 30.09 1019 10 16.09344 0 0
3:35 am 03:35 Clear 46 8 32 0 57 57 N 9 15 30.06 1018 10 16.09344 0 0
3:55 am 03:55 Clear 48 9 30 -1 50 50 N 13 20 30.06 1018 10 16.09344 0 0
4:15 am 04:15 Clear 46 8 30 -1 53 53 N 9 15 30.06 1018 10 16.09344 0 0
4:35 am 04:35 Clear 45 7 30 -1 57 57 NNW 10 17 30.09 1019 10 16.09344 0 0
4:55 am 04:55 Clear 45 7 30 -1 57 57 NNW 8 13 30.09 1019 10 16.09344 0 0
5:15 am 05:15 Clear 45 7 30 -1 57 57 N 7 11 30.09 1019 10 16.09344 0 0
5:35 am 05:35 Clear 45 7 30 -1 57 57 NNW 8 13 30.09 1019 10 16.09344 0 0
5:55 am 05:55 Clear 45 7 30 -1 57 57 N 5 7 30.09 1019 10 16.09344 0 0
6:15 am 06:15 Partly Cloudy 45 7 32 0 61 61 N 9 15 30.09 1019 10 16.09344 0 0
6:35 am 06:35 Partly Cloudy 45 7 32 0 61 61 NNE 5 7 30.12 1020 10 16.09344 0 0
6:55 am 06:55 Mostly Cloudy 45 7 32 0 61 61 N 7 11 30.12 1020 10 16.09344 0 0
7:15 am 07:15 Cloudy 45 7 32 0 61 61 N 3 6 30.12 1020 10 16.09344 0 0
7:35 am 07:35 Cloudy 45 7 32 0 61 61 NNE 3 6 30.15 1021 10 16.09344 0 0
7:55 am 07:55 Cloudy 45 7 32 0 61 61 NE 5 7 30.15 1021 10 16.09344 0 0
8:15 am 08:15 Cloudy 45 7 32 0 61 61 ENE 5 7 30.15 1021 10 16.09344 0 0
8:35 am 08:35 Cloudy 45 7 32 0 61 61 Calm 30.18 1022 10 16.09344 0 0
8:55 am 08:55 Cloudy 45 7 32 0 61 61 Calm 30.18 1022 10 16.09344 0 0
9:15 am 09:15 Cloudy with Light Rain 45 7 36 2 71 71 NE 5 7 30.18 1022 10 16.09344 0 0
9:35 am 09:35 Cloudy with Light Drizzle 43 6 36 2 76 76 NE 8 13 30.15 1021 10 16.09344 0 0
9:55 am 09:55 Cloudy 43 6 36 2 76 76 NNE 8 13 30.15 1021 10 16.09344 0 0
10:15 am 10:15 Cloudy 45 7 36 2 71 71 NNE 6 9 30.15 1021 10 16.09344 0 0
10:35 am 10:35 Cloudy 45 7 36 2 71 71 NE 6 9 30.15 1021 10 16.09344 0 0
10:55 am 10:55 Cloudy 45 7 36 2 71 71 NE 6 9 30.15 1021 10 16.09344 0 0
11:15 am 11:15 Cloudy 45 7 36 2 71 71 NE 7 11 30.15 1021 10 16.09344 0 0
11:35 am 11:35 Cloudy with Rain 43 6 36 2 76 76 ENE 3 6 30.15 1021 10 16.09344 0 0
11:55 am 11:55 Cloudy with Rain 41 5 37 3 87 87 NNE 8 13 30.15 1021 5 8.04672 0.01 0.254
12:35 pm 12:35 Cloudy with Rain 39 4 37 3 93 93 N 3 6 30.15 1021 2.5 4.02336 0.07 1.778
12:55 pm 12:55 Cloudy with Rain 39 4 37 3 93 93 NNE 3 6 30.18 1022 3 4.828032 0.1 2.54
1:15 pm 13:15 Cloudy with Light Rain 37 3 37 3 100 100 NNE 5 7 30.15 1021 2.5 4.02336 0.02 0.508
1:35 pm 13:35 Cloudy with Light Rain 37 3 37 3 100 100 NE 6 9 30.15 1021 4 6.437376 0.03 0.762
1:55 pm 13:55 Cloudy with Light Rain 37 3 37 3 100 100 NE 7 11 30.15 1021 4 6.437376 0.05 1.27
2:15 pm 14:15 Cloudy with Rain 37 3 37 3 100 100 ENE 5 7 30.12 1020 3 4.828032 0.01 0.254
2:35 pm 14:35 Cloudy with Rain 37 3 37 3 100 100 NNE 3 6 30.12 1020 3 4.828032 0.03 0.762
2:55 pm 14:55 Cloudy with Rain 36 2 36 2 100 100 NE 3 6 30.12 1020 2.5 4.02336 0.05 1.27
3:15 pm 15:15 Cloudy with Light Snow 36 2 36 2 100 100 NE 3 6 30.12 1020 2.5 4.02336 0.01 0.254
3:35 pm 15:35 Cloudy with Light Snow 36 2 36 2 100 100 NNE 3 6 30.12 1020 4 6.437376 0.03 0.762
3:55 pm 15:55 Cloudy with Light Rain 36 2 36 2 100 100 NNE 3 6 30.12 1020 4 6.437376 0.03 0.762
4:35 pm 16:35 Cloudy with Rain 36 2 36 2 100 100 N 3 6 30.09 1019 3 4.828032 0.01 0.254
4:55 pm 16:55 Cloudy with Light Rain 36 2 36 2 100 100 N 7 11 30.12 1020 4 6.437376 0.02 0.508
5:15 pm 17:15 Cloudy with Light Rain 36 2 36 2 100 100 N 3 6 30.12 1020 4 6.437376 0.01 0.254
5:35 pm 17:35 Cloudy with Light Snow 36 2 36 2 100 100 N 3 6 30.12 1020 1.5 2.414016 0.03 0.762
6:15 pm 18:15 Cloudy with Light Snow 34 1 34 1 100 100 NNE 5 7 30.12 1020 1 1.609344 0 0
6:35 pm 18:35 Cloudy with Light Snow 34 1 34 1 100 100 NNE 5 7 30.12 1020 2 3.218688 0.01 0.254
6:55 pm 18:55 Cloudy with Light Wintry Mix 34 1 34 1 100 100 N 5 7 30.12 1020 4 6.437376 0.03 0.762
7:15 pm 19:15 Cloudy with Light Snow 34 1 34 1 100 100 N 5 7 30.15 1021 5 8.04672 0.01 0.254
7:35 pm 19:35 Cloudy with Light Snow 36 2 36 2 100 100 NNE 6 9 30.12 1020 5 8.04672 0.02 0.508
7:55 pm 19:55 Cloudy with Light Snow 36 2 36 2 100 100 N 5 7 30.15 1021 5 8.04672 0.02 0.508
8:15 pm 20:15 Cloudy with Light Snow 36 2 36 2 100 100 Calm 30.15 1021 3 4.828032 0.01 0.254
8:35 pm 20:35 Cloudy with Light Snow 36 2 36 2 100 100 NNE 5 7 30.15 1021 5 8.04672 0.02 0.508
8:55 pm 20:55 Cloudy with Light Snow 36 2 36 2 100 100 Calm 30.15 1021 5 8.04672 0.03 0.762
9:15 pm 21:15 Cloudy with Light Rain 36 2 36 2 100 100 NNE 3 6 30.15 1021 5 8.04672 0 0
9:35 pm 21:35 Cloudy with Mist and Fog 36 2 36 2 100 100 Calm 30.15 1021 5 8.04672 0 0
10:15 pm 22:15 Cloudy with Mist and Fog 36 2 36 2 100 100 Calm 30.15 1021 5 8.04672 0 0
10:35 pm 22:35 Cloudy with Mist and Fog 36 2 36 2 100 100 Calm 30.15 1021 5 8.04672 0 0
10:55 pm 22:55 Cloudy with Mist and Fog 36 2 36 2 100 100 N 3 6 30.15 1021 5 8.04672 0 0
11:15 pm 23:15 Cloudy 36 2 36 2 100 100 N 3 6 30.15 1021 7 11.265408 0 0

Powered by AerisWeather